Location: Dompnac
(44.5644°N, 4.1026°E)
Time: 13:15:46
(UTC+00:00)

Cosmos 2026 Rocket - Pass Details

Date: 24 January 2021
Orbit: 940 x 1000 km, 82.9° (Epoch: 28 February)

Event Time Altitude Azimuth Distance (km) Brightness Sun altitude
Rises 17:36:12 0° 158° (SSE) 3,605 6.9 -9.9°
Reaches altitude 10° 17:38:52 10° 150° (SSE) 2,671 6.2 -10.3°
Maximum altitude 17:44:17 35° 87° (E) 1,514 4.5 -11.2°
Drops below altitude 10° 17:49:48 10° 24° (NNE) 2,723 6.0 -12.2°
Sets 17:52:32 0° 16° (NNE) 3,685 6.7 -12.7°
